Weather History for Peoria, IL

Change the Weather History Date:

Tuesday, March 4, 2014

  Actual Average Record
Temperature  
Mean Temperature 22 °F 36 °F  
Max Temperature 31 °F 45 °F 77 °F (1961)
Min Temperature 12 °F 27 °F -6 °F (1978)
Degree Days  
Heating Degree Days 43 29  
Month to date heating degree days 200 119  
Since 1 July heating degree days 5379 4635  
Cooling Degree Days 0 0  
Month to date cooling degree days 0 0  
Year to date cooling degree days 0 0  
Moisture  
Dew Point 8 °F    
Average Humidity 55    
Maximum Humidity 67    
Minimum Humidity 42    
Precipitation  
Precipitation 0.00 in 0.09 in 1.48 in (1976)
Month to date precipitation 0.32 0.33  
Year to date precipitation 5.19 3.90  
Snow  
Snow 0.00 in 0.10 in 5.60 in (1965)
Month to date snowfall 3.2 0.5  
Since 1 July snowfall 53.4 21.8  
Snow Depth 5.00 in    
Sea Level Pressure  
Sea Level Pressure 30.26 in    
Wind  
Wind Speed 6 mph (SE)    
Max Wind Speed 14 mph    
Max Gust Speed 17 mph    
Visibility 10 miles    
Events      
T = Trace of Precipitation, MM = Missing Value Source: NWS Daily Summary

Daily Weather History Graph

Daily Weather History Graph

Search for Another Location

Airport:

Trip Planner

Search our weather history database for the weather conditions in past years. The results will help you decide how hot, cold, wet, or windy it might be!

Date:

Astronomy

Mar. 04, 2014 Rise Set
Actual Time 6:27 AM CST 5:53 PM CST
Civil Twilight 6:00 AM CST 6:20 PM CST
Nautical Twilight 5:28 AM CST 6:52 PM CST
Astronomical Twilight 4:57 AM CST 7:24 PM CST
Moon 8:12 AM CST (3/4) 10:02 PM CST (3/4)
Length of Visible Light 12h 20m
Length of Day
11h 25m
Waxing Crescent, 15% of the Moon is Illuminated
Mar 4
Waxing Crescent
Mar 8
First Quarter
Mar 16
Full
Mar 23
Last Quarter
Mar 30
New

Hourly Weather History & Observations

Time (CST) Temp. Windchill Dew Point Humidity Pressure Visibility Wind Dir Wind Speed Gust Speed Precip Events Conditions
12:54 AM 12.9 °F - 1.9 °F 62% 30.41 in 10.0 mi Calm Calm - N/A   Partly Cloudy
1:54 AM 12.9 °F - 1.9 °F 62% 30.39 in 10.0 mi Calm Calm - N/A   Overcast
2:54 AM 12.9 °F 3.8 °F 1.9 °F 62% 30.36 in 10.0 mi SE 5.8 mph - N/A   Overcast
3:54 AM 12.9 °F 5.2 °F 3.0 °F 65% 30.35 in 10.0 mi SE 4.6 mph - N/A   Mostly Cloudy
4:54 AM 14.0 °F 6.5 °F 3.9 °F 64% 30.34 in 10.0 mi SE 4.6 mph - N/A   Overcast
5:54 AM 14.0 °F 8.2 °F 5.0 °F 67% 30.33 in 10.0 mi SE 3.5 mph - N/A   Mostly Cloudy
6:54 AM 14.0 °F 6.5 °F 5.0 °F 67% 30.32 in 10.0 mi SSE 4.6 mph - N/A   Overcast
7:54 AM 15.1 °F 4.2 °F 6.1 °F 68% 30.31 in 10.0 mi South 8.1 mph - N/A   Clear
8:54 AM 18.0 °F 6.9 °F 7.0 °F 62% 30.30 in 10.0 mi South 9.2 mph - N/A   Clear
9:54 AM 21.0 °F 10.6 °F 8.1 °F 57% 30.28 in 10.0 mi SSW 9.2 mph - N/A   Clear
10:54 AM 23.0 °F 11.7 °F 10.0 °F 58% 30.28 in 10.0 mi South 11.5 mph - N/A   Clear
11:54 AM 26.1 °F 15.0 °F 9.0 °F 49% 30.27 in 10.0 mi SSW 12.7 mph - N/A   Scattered Clouds
12:54 PM 28.0 °F 20.8 °F 9.0 °F 45% 30.23 in 10.0 mi WSW 6.9 mph - N/A   Clear
1:54 PM 28.9 °F 21.9 °F 8.1 °F 41% 30.20 in 10.0 mi SW 6.9 mph - N/A   Clear
2:54 PM 30.9 °F - 10.0 °F 42% 30.19 in 10.0 mi Calm Calm - N/A   Clear
3:54 PM 30.0 °F 21.7 °F 12.0 °F 47% 30.19 in 10.0 mi South 9.2 mph - N/A   Clear
4:54 PM 30.0 °F 24.1 °F 12.0 °F 47% 30.19 in 10.0 mi South 5.8 mph - N/A   Clear
5:54 PM 30.0 °F - 10.9 °F 45% 30.19 in 10.0 mi Calm Calm - N/A   Clear
6:54 PM 27.0 °F 21.6 °F 12.0 °F 53% 30.19 in 10.0 mi ENE 4.6 mph - N/A   Clear
7:54 PM 26.1 °F 20.5 °F 12.0 °F 55% 30.20 in 10.0 mi ENE 4.6 mph - N/A   Clear
8:54 PM 24.1 °F 16.0 °F 12.0 °F 60% 30.21 in 10.0 mi ENE 6.9 mph - N/A   Clear
9:54 PM 24.1 °F 14.4 °F 12.9 °F 62% 30.20 in 10.0 mi ENE 9.2 mph - N/A   Clear
10:54 PM 24.1 °F 14.4 °F 14.0 °F 65% 30.21 in 10.0 mi East 9.2 mph - N/A   Clear
11:54 PM 24.1 °F 13.7 °F 14.0 °F 65% 30.23 in 10.0 mi ENE 10.4 mph - N/A   Mostly Cloudy